SYN002 KLAX-KSAN

Flight info

Callsign SYN002
Flight time 0h 29m
Altitude 13000
Route LAXX1 MZB
Aircraft BCS3/M-SBDE2E3GIRWXY/LB1

Departure

Time 2026-05-06 22:21
Airport Los Angeles International Airport (KLAX)

Arrival

Time 2026-05-06 22:50
Airport San Diego International Airport (KSAN)
Time Latitude Longitude Altitude Speed Heading
2026-05-06 22:04 33.94067 -118.40378 132 ft 0 kts 253°
2026-05-06 22:12 33.94072 -118.40364 132 ft 3 kts 233°
2026-05-06 22:13 33.94085 -118.40349 131 ft 3 kts 204°
2026-05-06 22:13 33.94102 -118.40344 127 ft 3 kts 175°
2026-05-06 22:13 33.94108 -118.40344 126 ft 0 kts 167°
2026-05-06 22:14 33.94107 -118.40344 128 ft 1 kts 164°
2026-05-06 22:14 33.94087 -118.40331 127 ft 6 kts 153°
2026-05-06 22:14 33.94035 -118.40313 128 ft 10 kts 170°
2026-05-06 22:14 33.93954 -118.40300 128 ft 14 kts 173°
2026-05-06 22:15 33.93878 -118.40284 125 ft 8 kts 150°
2026-05-06 22:15 33.93855 -118.40239 126 ft 3 kts 101°
2026-05-06 22:15 33.93856 -118.40222 126 ft 4 kts 86°
2026-05-06 22:15 33.93861 -118.40168 124 ft 10 kts 82°
2026-05-06 22:16 33.93874 -118.40058 122 ft 17 kts 82°
2026-05-06 22:16 33.93889 -118.39896 119 ft 23 kts 83°
2026-05-06 22:16 33.93911 -118.39693 119 ft 26 kts 83°
2026-05-06 22:16 33.93932 -118.39455 116 ft 30 kts 83°
2026-05-06 22:17 33.93962 -118.39184 111 ft 34 kts 83°
2026-05-06 22:17 33.93992 -118.38887 110 ft 38 kts 83°
2026-05-06 22:17 33.94022 -118.38594 108 ft 28 kts 82°
2026-05-06 22:17 33.94044 -118.38384 108 ft 5 kts 95°
2026-05-06 22:18 33.94043 -118.38377 108 ft 0 kts 98°
2026-05-06 22:18 33.94044 -118.38370 108 ft 3 kts 85°
2026-05-06 22:18 33.94054 -118.38295 107 ft 13 kts 82°
2026-05-06 22:18 33.94068 -118.38162 105 ft 19 kts 83°
2026-05-06 22:19 33.94052 -118.38023 105 ft 15 kts 147°
2026-05-06 22:19 33.94007 -118.38019 107 ft 2 kts 209°
2026-05-06 22:19 33.94000 -118.38025 107 ft 1 kts 221°
2026-05-06 22:19 33.93993 -118.38035 108 ft 2 kts 236°
2026-05-06 22:20 33.93984 -118.38066 108 ft 8 kts 254°
2026-05-06 22:20 33.93967 -118.38188 107 ft 33 kts 262°
2026-05-06 22:20 33.93916 -118.38709 106 ft 91 kts 263°
2026-05-06 22:20 33.93818 -118.39653 245 ft 122 kts 262°
2026-05-06 22:21 33.93707 -118.40685 673 ft 134 kts 262°
2026-05-06 22:21 33.93607 -118.41788 1363 ft 136 kts 262°
2026-05-06 22:21 33.93485 -118.42986 2074 ft 147 kts 254°
2026-05-06 22:21 33.92955 -118.44070 2951 ft 159 kts 234°
2026-05-06 22:22 33.92235 -118.45174 3485 ft 178 kts 233°
2026-05-06 22:22 33.91423 -118.46381 4044 ft 194 kts 232°
2026-05-06 22:22 33.90533 -118.47695 4590 ft 212 kts 232°
2026-05-06 22:22 33.89563 -118.49122 5112 ft 229 kts 232°
2026-05-06 22:23 33.88519 -118.50660 5614 ft 247 kts 232°
2026-05-06 22:23 33.87392 -118.52330 6188 ft 265 kts 232°
2026-05-06 22:23 33.86196 -118.54111 6761 ft 283 kts 232°
2026-05-06 22:23 33.84940 -118.55979 7525 ft 289 kts 232°
2026-05-06 22:24 33.83641 -118.57864 8324 ft 296 kts 225°
2026-05-06 22:24 33.81848 -118.59059 9209 ft 300 kts 192°
2026-05-06 22:24 33.79767 -118.59286 10076 ft 303 kts 180°
2026-05-06 22:24 33.77628 -118.59379 10624 ft 317 kts 180°
2026-05-06 22:25 33.75363 -118.59468 11076 ft 333 kts 180°
2026-05-06 22:25 33.73010 -118.59553 11695 ft 340 kts 180°
2026-05-06 22:25 33.70631 -118.59616 12376 ft 344 kts 176°
2026-05-06 22:25 33.68324 -118.58877 12917 ft 349 kts 150°
2026-05-06 22:26 33.66489 -118.57027 13035 ft 344 kts 124°
2026-05-06 22:26 33.65568 -118.54474 13024 ft 330 kts 96°
2026-05-06 22:26 33.65390 -118.51734 13024 ft 331 kts 90°
2026-05-06 22:26 33.65276 -118.48969 13003 ft 331 kts 90°
2026-05-06 22:27 33.65163 -118.46222 12998 ft 330 kts 90°
2026-05-06 22:27 33.65051 -118.43471 12993 ft 330 kts 90°
2026-05-06 22:27 33.64940 -118.40702 13005 ft 339 kts 90°
2026-05-06 22:27 33.64826 -118.37767 13004 ft 361 kts 90°
2026-05-06 22:28 33.64713 -118.34747 12993 ft 360 kts 90°
2026-05-06 22:28 33.64601 -118.31758 12994 ft 359 kts 90°
2026-05-06 22:28 33.64490 -118.28750 12998 ft 361 kts 90°
2026-05-06 22:28 33.64377 -118.25743 12994 ft 360 kts 90°
2026-05-06 22:29 33.64264 -118.22739 12991 ft 361 kts 90°
2026-05-06 22:29 33.63828 -118.19774 12986 ft 365 kts 108°
2026-05-06 22:29 33.62549 -118.17139 12992 ft 370 kts 128°
2026-05-06 22:29 33.60658 -118.15104 12981 ft 372 kts 139°
2026-05-06 22:30 33.58682 -118.13089 12974 ft 373 kts 135°
2026-05-06 22:30 33.56845 -118.10904 12974 ft 371 kts 131°
2026-05-06 22:30 33.55113 -118.08611 12998 ft 371 kts 129°
2026-05-06 22:30 33.53441 -118.06262 12997 ft 371 kts 128°
2026-05-06 22:31 33.51795 -118.03874 12993 ft 371 kts 127°
2026-05-06 22:31 33.50159 -118.01480 12988 ft 371 kts 127°
2026-05-06 22:31 33.48530 -117.99086 12994 ft 371 kts 127°
2026-05-06 22:31 33.46902 -117.96687 12993 ft 372 kts 127°
2026-05-06 22:32 33.45271 -117.94280 12988 ft 372 kts 127°
2026-05-06 22:32 33.43643 -117.91876 12986 ft 372 kts 127°
2026-05-06 22:32 33.42011 -117.89463 12991 ft 372 kts 127°
2026-05-06 22:32 33.40385 -117.87058 12986 ft 372 kts 127°
2026-05-06 22:33 33.38754 -117.84646 12982 ft 373 kts 127°
2026-05-06 22:33 33.37124 -117.82235 12986 ft 373 kts 127°
2026-05-06 22:33 33.35493 -117.79822 12990 ft 373 kts 127°
2026-05-06 22:33 33.33857 -117.77403 12980 ft 374 kts 127°
2026-05-06 22:34 33.32223 -117.74989 12965 ft 374 kts 127°
2026-05-06 22:34 33.30583 -117.72568 12965 ft 374 kts 127°
2026-05-06 22:34 33.28946 -117.70151 12966 ft 374 kts 127°
2026-05-06 22:34 33.27302 -117.67726 12963 ft 375 kts 127°
2026-05-06 22:35 33.25659 -117.65304 12960 ft 375 kts 128°
2026-05-06 22:35 33.24017 -117.62885 12963 ft 375 kts 127°
2026-05-06 22:35 33.22375 -117.60467 12969 ft 376 kts 128°
2026-05-06 22:35 33.20727 -117.58040 12967 ft 376 kts 128°
2026-05-06 22:36 33.19078 -117.55627 12961 ft 375 kts 129°
2026-05-06 22:36 33.17217 -117.53436 12965 ft 377 kts 136°
2026-05-06 22:36 33.15291 -117.51310 12975 ft 377 kts 136°
2026-05-06 22:36 33.13398 -117.49144 12964 ft 376 kts 135°
2026-05-06 22:37 33.11542 -117.46950 12963 ft 376 kts 134°
2026-05-06 22:37 33.09689 -117.44736 12965 ft 377 kts 134°
2026-05-06 22:37 33.07846 -117.42526 12977 ft 376 kts 134°
2026-05-06 22:37 33.06005 -117.40313 12974 ft 376 kts 134°
2026-05-06 22:38 33.04784 -117.38844 12973 ft 376 kts 134°
2026-05-06 22:38 33.03312 -117.37072 12958 ft 377 kts 134°
2026-05-06 22:38 33.01480 -117.34864 12437 ft 372 kts 134°
2026-05-06 22:38 32.99677 -117.32690 11915 ft 365 kts 134°
2026-05-06 22:39 32.97915 -117.30566 11432 ft 354 kts 134°
2026-05-06 22:39 32.96218 -117.28519 10991 ft 339 kts 134°
2026-05-06 22:39 32.94608 -117.26579 10563 ft 321 kts 134°
2026-05-06 22:39 32.93072 -117.24726 10156 ft 308 kts 134°
2026-05-06 22:40 32.91577 -117.22923 9731 ft 308 kts 134°
2026-05-06 22:40 32.90076 -117.21113 9305 ft 307 kts 134°
2026-05-06 22:40 32.88588 -117.19320 8905 ft 302 kts 135°
2026-05-06 22:40 32.87121 -117.17554 8518 ft 297 kts 135°
2026-05-06 22:41 32.84256 -117.14107 7740 ft 289 kts 135°
2026-05-06 22:41 32.82857 -117.12426 7377 ft 283 kts 135°
2026-05-06 22:41 32.81492 -117.10786 7011 ft 275 kts 135°
2026-05-06 22:42 32.80161 -117.09188 6655 ft 268 kts 135°
2026-05-06 22:42 32.78871 -117.07639 6290 ft 260 kts 135°
2026-05-06 22:42 32.77879 -117.05899 5993 ft 253 kts 112°
2026-05-06 22:42 32.77316 -117.03979 5829 ft 238 kts 107°
2026-05-06 22:43 32.76844 -117.02108 5564 ft 235 kts 106°
2026-05-06 22:43 32.76390 -117.00256 5356 ft 233 kts 106°
2026-05-06 22:43 32.75941 -116.98422 5144 ft 228 kts 107°
2026-05-06 22:43 32.75167 -116.96809 4876 ft 224 kts 134°
2026-05-06 22:44 32.73923 -116.95770 4613 ft 215 kts 159°
2026-05-06 22:44 32.72510 -116.95419 4382 ft 203 kts 182°
2026-05-06 22:44 32.71196 -116.95696 4162 ft 189 kts 204°
2026-05-06 22:44 32.70083 -116.96491 3963 ft 184 kts 224°
2026-05-06 22:45 32.69294 -116.97640 3762 ft 181 kts 242°
2026-05-06 22:45 32.68875 -116.99029 3531 ft 178 kts 261°
2026-05-06 22:45 32.68877 -117.00467 3287 ft 170 kts 280°
2026-05-06 22:45 32.69164 -117.01744 3075 ft 152 kts 285°
2026-05-06 22:46 32.69448 -117.02900 2859 ft 139 kts 285°
2026-05-06 22:46 32.69709 -117.03966 2719 ft 132 kts 285°
2026-05-06 22:46 32.69963 -117.05003 2577 ft 132 kts 286°
2026-05-06 22:46 32.70221 -117.06058 2393 ft 132 kts 286°
2026-05-06 22:47 32.70474 -117.07096 2227 ft 130 kts 285°
2026-05-06 22:47 32.70728 -117.08142 2055 ft 133 kts 285°
2026-05-06 22:47 32.70986 -117.09207 1846 ft 134 kts 285°
2026-05-06 22:47 32.71245 -117.10265 1649 ft 134 kts 285°
2026-05-06 22:48 32.71504 -117.11324 1431 ft 133 kts 285°
2026-05-06 22:48 32.71757 -117.12374 1219 ft 132 kts 285°
2026-05-06 22:48 32.72005 -117.13412 1011 ft 129 kts 285°
2026-05-06 22:48 32.72254 -117.14442 810 ft 130 kts 287°
2026-05-06 22:49 32.72509 -117.15473 610 ft 129 kts 287°
2026-05-06 22:49 32.72761 -117.16477 408 ft 128 kts 285°
2026-05-06 22:49 32.72982 -117.17503 182 ft 127 kts 285°
2026-05-06 22:49 32.73225 -117.18462 27 ft 99 kts 289°
2026-05-06 22:50 32.73374 -117.19049 27 ft 50 kts 285°
2026-05-06 22:50 32.73448 -117.19397 28 ft 41 kts 264°
2026-05-06 22:50 32.73413 -117.19550 29 ft 1 kts 265°
2026-05-06 22:50 32.73412 -117.19565 29 ft 1 kts 265°
2026-05-06 22:51 32.73412 -117.19570 29 ft 2 kts 265°
2026-05-06 22:51 32.73411 -117.19614 28 ft 8 kts 275°
2026-05-06 22:51 32.73427 -117.19686 28 ft 10 kts 285°
2026-05-06 22:52 32.73446 -117.19767 29 ft 10 kts 286°
2026-05-06 22:52 32.73466 -117.19849 30 ft 11 kts 286°
2026-05-06 22:52 32.73475 -117.19924 29 ft 9 kts 254°
2026-05-06 22:52 32.73441 -117.19958 29 ft 5 kts 193°
2026-05-06 22:53 32.73403 -117.19968 29 ft 7 kts 193°
2026-05-06 22:53 32.73358 -117.19996 29 ft 8 kts 237°
2026-05-06 22:53 32.73346 -117.20059 28 ft 2 kts 262°
2026-05-06 22:54 32.73346 -117.20060 28 ft 0 kts 262°